RYR4773 EDDK-ESSA

Flight info

Callsign RYR4773
Flight time N/A
Altitude 37000
Route PODIP1R PODIP Y867 PELUN DCT ANZIV DCT WRB Y867 TOLGI DCT ELKIM DCT MIKNA N851 PELUP Z226 NILUG
Aircraft B38M/M-SDE1FGHILORVWXY/HB1

Departure

Time 2026-05-06 19:22
Airport Cologne Bonn Airport (EDDK)

Arrival

Time N/A
Airport Stockholm-Arlanda Airport (ESSA)
Time Latitude Longitude Altitude Speed Heading
2026-05-06 18:45 50.88247 7.12199 237 ft 0 kts 36°
2026-05-06 18:47 50.88247 7.12198 237 ft 0 kts 36°
2026-05-06 19:00 50.88240 7.12190 235 ft 3 kts 38°
2026-05-06 19:00 50.88227 7.12170 240 ft 3 kts 68°
2026-05-06 19:00 50.88227 7.12154 240 ft 2 kts 126°
2026-05-06 19:01 50.88237 7.12132 237 ft 3 kts 125°
2026-05-06 19:01 50.88247 7.12108 237 ft 2 kts 125°
2026-05-06 19:01 50.88250 7.12103 237 ft 1 kts 125°
2026-05-06 19:04 50.88248 7.12108 237 ft 2 kts 125°
2026-05-06 19:04 50.88233 7.12131 240 ft 4 kts 146°
2026-05-06 19:05 50.88198 7.12139 235 ft 6 kts 177°
2026-05-06 19:05 50.88161 7.12186 237 ft 8 kts 124°
2026-05-06 19:05 50.88124 7.12268 235 ft 10 kts 126°
2026-05-06 19:05 50.88076 7.12373 235 ft 13 kts 126°
2026-05-06 19:06 50.88034 7.12481 235 ft 9 kts 119°
2026-05-06 19:06 50.87997 7.12579 236 ft 12 kts 130°
2026-05-06 19:06 50.87917 7.12621 235 ft 14 kts 187°
2026-05-06 19:06 50.87819 7.12633 235 ft 16 kts 147°
2026-05-06 19:07 50.87730 7.12756 237 ft 18 kts 137°
2026-05-06 19:07 50.87636 7.12890 235 ft 10 kts 137°
2026-05-06 19:07 50.87582 7.12969 235 ft 12 kts 137°
2026-05-06 19:07 50.87514 7.13068 238 ft 14 kts 137°
2026-05-06 19:08 50.87434 7.13184 235 ft 17 kts 137°
2026-05-06 19:08 50.87341 7.13318 235 ft 19 kts 137°
2026-05-06 19:08 50.87246 7.13456 237 ft 18 kts 137°
2026-05-06 19:08 50.87152 7.13593 240 ft 18 kts 137°
2026-05-06 19:09 50.87057 7.13730 244 ft 19 kts 137°
2026-05-06 19:09 50.86962 7.13867 249 ft 17 kts 137°
2026-05-06 19:09 50.86889 7.13973 256 ft 13 kts 137°
2026-05-06 19:09 50.86829 7.14060 257 ft 12 kts 137°
2026-05-06 19:10 50.86752 7.14132 257 ft 14 kts 174°
2026-05-06 19:10 50.86681 7.14213 262 ft 12 kts 137°
2026-05-06 19:10 50.86618 7.14304 264 ft 13 kts 137°
2026-05-06 19:10 50.86548 7.14406 265 ft 14 kts 137°
2026-05-06 19:11 50.86480 7.14505 270 ft 13 kts 137°
2026-05-06 19:11 50.86417 7.14595 273 ft 12 kts 137°
2026-05-06 19:11 50.86360 7.14679 277 ft 11 kts 137°
2026-05-06 19:11 50.86305 7.14759 280 ft 11 kts 137°
2026-05-06 19:12 50.86251 7.14837 283 ft 11 kts 137°
2026-05-06 19:12 50.86185 7.14932 287 ft 15 kts 137°
2026-05-06 19:12 50.86088 7.15073 293 ft 23 kts 137°
2026-05-06 19:12 50.85960 7.15259 297 ft 26 kts 137°
2026-05-06 19:13 50.85819 7.15462 299 ft 28 kts 137°
2026-05-06 19:13 50.85688 7.15652 304 ft 24 kts 137°
2026-05-06 19:13 50.85577 7.15813 308 ft 20 kts 137°
2026-05-06 19:13 50.85480 7.15954 310 ft 18 kts 137°
2026-05-06 19:14 50.85384 7.16092 310 ft 17 kts 135°
2026-05-06 19:14 50.85336 7.16257 310 ft 13 kts 95°
2026-05-06 19:14 50.85346 7.16362 310 ft 9 kts 71°
2026-05-06 19:14 50.85351 7.16379 310 ft 0 kts 64°
2026-05-06 19:17 50.85353 7.16387 311 ft 2 kts 64°
2026-05-06 19:17 50.85367 7.16418 311 ft 6 kts 51°
2026-05-06 19:17 50.85410 7.16482 311 ft 11 kts 33°
2026-05-06 19:18 50.85425 7.16494 310 ft 0 kts 25°
2026-05-06 19:19 50.85429 7.16497 310 ft 2 kts 25°
2026-05-06 19:19 50.85465 7.16515 310 ft 9 kts
2026-05-06 19:19 50.85552 7.16499 310 ft 16 kts 340°
2026-05-06 19:20 50.85624 7.16419 311 ft 0 kts 317°
2026-05-06 19:22 50.85732 7.16264 311 ft 64 kts 317°
2026-05-06 19:22 50.86293 7.15451 290 ft 151 kts 317°
2026-05-06 19:22 50.87230 7.14150 618 ft 199 kts 320°
2026-05-06 19:22 50.88361 7.12647 1347 ft 226 kts 321°
2026-05-06 19:23 50.89644 7.11292 1980 ft 220 kts 337°
2026-05-06 19:23 50.91109 7.10955 2968 ft 208 kts
2026-05-06 19:23 50.92420 7.11812 4096 ft 209 kts 34°
2026-05-06 19:23 50.93386 7.13600 4895 ft 222 kts 57°
2026-05-06 19:24 50.94111 7.15879 5492 ft 243 kts 62°
2026-05-06 19:24 50.94869 7.18318 5674 ft 248 kts 61°
2026-05-06 19:24 50.95663 7.20840 5785 ft 262 kts 61°
2026-05-06 19:24 50.96493 7.23451 5835 ft 268 kts 61°
2026-05-06 19:25 50.97341 7.26105 5906 ft 272 kts 61°
2026-05-06 19:25 50.98196 7.28772 6801 ft 269 kts 61°
2026-05-06 19:25 50.99043 7.31439 7906 ft 272 kts 61°
2026-05-06 19:25 50.99891 7.34132 9000 ft 274 kts 60°
2026-05-06 19:26 51.00745 7.36845 10060 ft 277 kts 60°
2026-05-06 19:26 51.01586 7.39692 10704 ft 295 kts 69°
2026-05-06 19:26 51.01804 7.43008 11369 ft 313 kts 94°
2026-05-06 19:26 51.01253 7.46427 12073 ft 326 kts 105°
2026-05-06 19:27 51.00578 7.49911 12871 ft 333 kts 105°
2026-05-06 19:27 50.99889 7.53454 13639 ft 341 kts 106°
2026-05-06 19:27 50.99185 7.57055 13806 ft 341 kts 107°
2026-05-06 19:27 50.98480 7.60656 13854 ft 343 kts 108°
2026-05-06 19:28 50.97768 7.64272 13863 ft 343 kts 108°
2026-05-06 19:28 50.97055 7.67888 13868 ft 343 kts 108°
2026-05-06 19:28 50.96343 7.71497 13868 ft 343 kts 108°
2026-05-06 19:28 50.95627 7.75114 13858 ft 343 kts 108°
2026-05-06 19:29 50.94961 7.78750 13847 ft 344 kts 100°
2026-05-06 19:29 50.94995 7.82510 13835 ft 343 kts 77°
2026-05-06 19:29 50.95885 7.85998 13870 ft 343 kts 60°
2026-05-06 19:29 50.97060 7.89293 13847 ft 344 kts 60°
2026-05-06 19:30 50.98249 7.92589 13850 ft 344 kts 59°
2026-05-06 19:30 50.99448 7.95874 13847 ft 344 kts 59°
2026-05-06 19:30 51.00652 7.99156 13851 ft 344 kts 59°
2026-05-06 19:30 51.01860 8.02438 13864 ft 345 kts 59°
2026-05-06 19:31 51.03072 8.05732 14371 ft 346 kts 59°
2026-05-06 19:31 51.03881 8.07928 14843 ft 350 kts 59°
2026-05-06 19:31 51.06808 8.15901 16454 ft 360 kts 59°
2026-05-06 19:32 51.07646 8.18187 16917 ft 363 kts 59°
2026-05-06 19:32 51.08923 8.21671 17670 ft 366 kts 59°
2026-05-06 19:32 51.10207 8.25201 18339 ft 370 kts 59°
2026-05-06 19:32 51.11501 8.28761 18957 ft 373 kts 59°
2026-05-06 19:33 51.12795 8.32329 19573 ft 376 kts 59°
2026-05-06 19:33 51.14117 8.35978 20169 ft 379 kts 60°
2026-05-06 19:33 51.15440 8.39635 20749 ft 382 kts 60°
2026-05-06 19:33 51.16772 8.43324 21341 ft 386 kts 60°
2026-05-06 19:34 51.18114 8.47043 21916 ft 389 kts 60°
2026-05-06 19:34 51.19466 8.50794 22499 ft 392 kts 60°
2026-05-06 19:34 51.21014 8.54389 23063 ft 394 kts 49°
2026-05-06 19:34 51.22797 8.57727 23594 ft 398 kts 50°
2026-05-06 19:35 51.24585 8.61133 24033 ft 402 kts 50°
2026-05-06 19:35 51.26394 8.64585 24428 ft 407 kts 50°
2026-05-06 19:35 51.28211 8.68057 24967 ft 408 kts 50°
2026-05-06 19:35 51.30041 8.71558 25399 ft 413 kts 50°
2026-05-06 19:36 51.31886 8.75095 25872 ft 416 kts 50°
2026-05-06 19:36 51.33744 8.78659 26319 ft 419 kts 50°
2026-05-06 19:36 51.35614 8.82253 26762 ft 422 kts 50°
2026-05-06 19:36 51.37502 8.85882 27192 ft 425 kts 50°
2026-05-06 19:37 51.39400 8.89528 27622 ft 428 kts 50°
2026-05-06 19:37 51.41315 8.93212 28047 ft 431 kts 50°
2026-05-06 19:37 51.43241 8.96924 28465 ft 435 kts 51°
2026-05-06 19:37 51.45176 9.00657 28876 ft 438 kts 51°
2026-05-06 19:38 51.47127 9.04425 29295 ft 440 kts 50°
2026-05-06 19:38 51.49077 9.08200 29787 ft 440 kts 50°
2026-05-06 19:38 51.51142 9.11855 30085 ft 444 kts 40°
2026-05-06 19:38 51.53530 9.14893 30438 ft 445 kts 38°
2026-05-06 19:39 51.55945 9.18032 30715 ft 449 kts 39°
2026-05-06 19:39 51.58380 9.21198 31051 ft 451 kts 38°
2026-05-06 19:39 51.60824 9.24375 31371 ft 453 kts 38°
2026-05-06 19:39 51.63279 9.27567 31690 ft 455 kts 39°
2026-05-06 19:40 51.65749 9.30784 32001 ft 458 kts 39°
2026-05-06 19:40 51.68227 9.34016 32323 ft 460 kts 39°
2026-05-06 19:40 51.70716 9.37266 32703 ft 460 kts 39°
2026-05-06 19:40 51.73212 9.40531 32964 ft 464 kts 39°
2026-05-06 19:41 51.75723 9.43820 33237 ft 467 kts 39°
2026-05-06 19:41 51.78252 9.47137 33511 ft 470 kts 39°
2026-05-06 19:41 51.80792 9.50473 33777 ft 472 kts 39°
2026-05-06 19:41 51.83424 9.53653 34044 ft 473 kts 29°
2026-05-06 19:42 51.86354 9.56039 34380 ft 471 kts 26°
2026-05-06 19:42 51.89276 9.58459 34637 ft 473 kts 26°
2026-05-06 19:42 51.92206 9.60878 34958 ft 473 kts 26°
2026-05-06 19:42 51.95141 9.63293 35256 ft 473 kts 26°
2026-05-06 19:43 51.98077 9.65707 35558 ft 473 kts 26°
2026-05-06 19:43 52.01012 9.68124 35864 ft 473 kts 26°
2026-05-06 19:43 52.03948 9.70544 36162 ft 473 kts 26°
2026-05-06 19:43 52.06882 9.72967 36444 ft 473 kts 26°
2026-05-06 19:44 52.09821 9.75397 36722 ft 474 kts 26°
2026-05-06 19:44 52.12761 9.77832 36882 ft 475 kts 26°
2026-05-06 19:44 52.18634 9.82707 36849 ft 472 kts 26°
2026-05-06 19:45 52.24485 9.87578 36852 ft 472 kts 26°
2026-05-06 19:45 52.30337 9.92463 36850 ft 472 kts 26°
2026-05-06 19:46 52.36202 9.97376 36865 ft 475 kts 26°
2026-05-06 19:46 52.42035 10.02275 36851 ft 474 kts 26°
2026-05-06 19:47 52.47899 10.07215 36855 ft 474 kts 26°
2026-05-06 19:47 52.53768 10.12175 36856 ft 474 kts 26°
2026-05-06 19:48 52.59629 10.17143 36864 ft 474 kts 26°
2026-05-06 19:48 52.65493 10.22129 36857 ft 474 kts 26°
2026-05-06 19:49 52.71344 10.27119 36858 ft 474 kts 26°
2026-05-06 19:49 52.77204 10.32131 36859 ft 474 kts 26°
2026-05-06 19:50 52.83052 10.37149 36871 ft 474 kts 26°
2026-05-06 19:50 52.88902 10.42183 36867 ft 474 kts 26°
2026-05-06 19:51 52.94753 10.47234 36870 ft 474 kts 26°
2026-05-06 19:51 53.00597 10.52294 36875 ft 474 kts 26°
2026-05-06 19:52 53.06438 10.57368 36872 ft 474 kts 26°
2026-05-06 19:52 53.12282 10.62459 36878 ft 474 kts 26°
2026-05-06 19:53 53.18120 10.67561 36878 ft 474 kts 26°
2026-05-06 19:53 53.23954 10.72677 36880 ft 474 kts 26°
2026-05-06 19:54 53.29786 10.77806 36881 ft 473 kts 26°
2026-05-06 19:54 53.35604 10.82937 36883 ft 473 kts 26°
2026-05-06 19:55 53.41423 10.88087 36866 ft 474 kts 26°
2026-05-06 19:55 53.47270 10.93277 36889 ft 476 kts 26°
2026-05-06 19:56 53.53110 10.98476 36895 ft 475 kts 26°
2026-05-06 19:56 53.58949 11.03693 36900 ft 475 kts 26°
2026-05-06 19:57 53.64784 11.08921 36903 ft 475 kts 26°
2026-05-06 19:57 53.70582 11.14133 36906 ft 475 kts 26°
2026-05-06 19:58 53.76413 11.19391 36908 ft 475 kts 26°
2026-05-06 19:58 53.82234 11.24656 36909 ft 475 kts 26°
2026-05-06 19:59 53.88055 11.29939 36908 ft 475 kts 27°
2026-05-06 19:59 53.93870 11.35233 36920 ft 474 kts 27°
2026-05-06 20:00 53.99684 11.40543 36922 ft 474 kts 27°
2026-05-06 20:00 54.05496 11.45866 36925 ft 474 kts 27°
2026-05-06 20:01 54.11302 11.51201 36928 ft 474 kts 27°
2026-05-06 20:01 54.17034 11.56779 36908 ft 475 kts 38°
2026-05-06 20:02 54.19354 11.60751 36934 ft 473 kts 54°
2026-05-06 20:02 54.21042 11.65572 36946 ft 475 kts 64°
2026-05-06 20:02 54.23987 11.75706 36921 ft 476 kts 65°
2026-05-06 20:03 54.26984 11.85836 36923 ft 479 kts 58°
2026-05-06 20:03 54.29032 11.90294 36949 ft 476 kts 46°
2026-05-06 20:03 54.31362 11.94353 36950 ft 479 kts 45°
2026-05-06 20:04 54.36075 12.02420 36944 ft 479 kts 45°
2026-05-06 20:04 54.40787 12.10501 36950 ft 479 kts 45°
2026-05-06 20:05 54.45487 12.18600 36946 ft 478 kts 45°
2026-05-06 20:05 54.50181 12.26708 36947 ft 478 kts 45°
2026-05-06 20:06 54.54873 12.34825 36949 ft 478 kts 45°
2026-05-06 20:06 54.59565 12.42961 36949 ft 478 kts 45°
2026-05-06 20:07 54.64256 12.51120 36954 ft 480 kts 45°
2026-05-06 20:07 54.68954 12.59325 36955 ft 480 kts 45°
2026-05-06 20:08 54.73650 12.67544 36960 ft 480 kts 45°
2026-05-06 20:08 54.78345 12.75780 36960 ft 480 kts 45°
2026-05-06 20:09 54.83036 12.84028 36966 ft 480 kts 45°
2026-05-06 20:09 54.87690 12.92236 36966 ft 480 kts 45°
2026-05-06 20:10 54.92373 13.00512 36972 ft 480 kts 45°
2026-05-06 20:10 54.97050 13.08781 36970 ft 480 kts 43°
2026-05-06 20:11 54.99678 13.12318 36942 ft 476 kts 27°
2026-05-06 20:11 55.02715 13.14481 36982 ft 470 kts 12°
2026-05-06 20:11 55.08924 13.18244 37029 ft 475 kts 22°
2026-05-06 20:12 55.14919 13.23214 36966 ft 477 kts 24°
2026-05-06 20:12 55.20841 13.28451 36982 ft 477 kts 25°
2026-05-06 20:13 55.26745 13.33773 36987 ft 477 kts 25°
2026-05-06 20:13 55.32646 13.39117 36989 ft 478 kts 25°
2026-05-06 20:14 55.38560 13.44492 36989 ft 478 kts 25°
2026-05-06 20:14 55.44474 13.49886 36991 ft 478 kts 25°
2026-05-06 20:15 55.50382 13.55292 36991 ft 478 kts 25°
2026-05-06 20:15 55.56289 13.60714 36999 ft 478 kts 25°
2026-05-06 20:16 55.62187 13.66150 36983 ft 478 kts 25°
2026-05-06 20:16 55.68088 13.71605 36986 ft 478 kts 25°
2026-05-06 20:17 55.73984 13.77075 36988 ft 478 kts 25°
2026-05-06 20:17 55.79879 13.82562 36985 ft 478 kts 25°
2026-05-06 20:18 55.84778 13.87137 36980 ft 478 kts 25°
2026-05-06 20:18 55.90660 13.92646 36979 ft 478 kts 25°
2026-05-06 20:19 55.96547 13.98180 36987 ft 478 kts 26°
2026-05-06 20:19 56.02432 14.03731 36984 ft 478 kts 26°
2026-05-06 20:20 56.08310 14.09295 36991 ft 478 kts 25°
2026-05-06 20:20 56.14184 14.14873 36995 ft 478 kts 25°
2026-05-06 20:21 56.20055 14.20469 36997 ft 478 kts 26°
2026-05-06 20:21 56.25919 14.26078 36990 ft 478 kts 26°
2026-05-06 20:22 56.31785 14.31709 36997 ft 478 kts 26°
2026-05-06 20:22 56.37616 14.37325 36991 ft 479 kts 26°
2026-05-06 20:23 56.43488 14.43000 36992 ft 478 kts 26°
2026-05-06 20:23 56.49351 14.48688 36995 ft 478 kts 26°
2026-05-06 20:24 56.55218 14.54398 37004 ft 479 kts 26°
2026-05-06 20:24 56.61092 14.60137 36995 ft 480 kts 26°
2026-05-06 20:25 56.66963 14.65892 36995 ft 480 kts 26°
2026-05-06 20:25 56.72830 14.71665 36974 ft 480 kts 26°
2026-05-06 20:26 56.78699 14.77459 37000 ft 480 kts 26°
2026-05-06 20:26 56.84574 14.83281 36996 ft 481 kts 26°
2026-05-06 20:27 56.90447 14.89122 36992 ft 481 kts 26°
2026-05-06 20:27 56.96320 14.94984 36992 ft 481 kts 26°
2026-05-06 20:28 57.02189 15.00863 37003 ft 481 kts 26°
2026-05-06 20:28 57.08064 15.06769 37005 ft 482 kts 26°
2026-05-06 20:29 57.13945 15.12704 37002 ft 482 kts 26°
2026-05-06 20:29 57.19826 15.18660 37003 ft 482 kts 26°
2026-05-06 20:30 57.28639 15.27626 37025 ft 483 kts 26°
2026-05-06 20:31 57.34527 15.33644 37004 ft 484 kts 26°
2026-05-06 20:31 57.40411 15.39680 37000 ft 483 kts 26°
2026-05-06 20:32 57.46293 15.45737 37003 ft 483 kts 26°
2026-05-06 20:32 57.52169 15.51811 37008 ft 483 kts 26°
2026-05-06 20:33 57.58048 15.57909 37004 ft 484 kts 26°
2026-05-06 20:33 57.63897 15.63999 37010 ft 484 kts 26°
2026-05-06 20:34 57.69777 15.70145 37008 ft 484 kts 26°
2026-05-06 20:34 57.75656 15.76312 37003 ft 484 kts 26°
2026-05-06 20:35 57.81522 15.82487 37005 ft 484 kts 26°
2026-05-06 20:35 57.87396 15.88697 37003 ft 484 kts 26°
2026-05-06 20:36 57.93205 15.95105 36985 ft 487 kts 38°
2026-05-06 20:36 57.98336 16.03430 36805 ft 485 kts 37°
2026-05-06 20:36 58.00964 16.07379 36152 ft 484 kts 36°
2026-05-06 20:37 58.03617 16.11338 35377 ft 488 kts 36°
2026-05-06 20:37 58.06284 16.15317 34721 ft 488 kts 36°
2026-05-06 20:37 58.08936 16.19278 34259 ft 484 kts 36°
2026-05-06 20:37 58.11563 16.23208 33813 ft 478 kts 36°
2026-05-06 20:38 58.14160 16.27102 33252 ft 475 kts 36°
2026-05-06 20:38 58.16744 16.30982 32694 ft 472 kts 36°
2026-05-06 20:38 58.19309 16.34842 32193 ft 469 kts 36°
2026-05-06 20:38 58.21849 16.38671 31705 ft 465 kts 36°
2026-05-06 20:39 58.24373 16.42484 31217 ft 462 kts 36°
2026-05-06 20:39 58.26876 16.46279 30729 ft 460 kts 38°
2026-05-06 20:39 58.29079 16.50694 30132 ft 463 kts 54°
2026-05-06 20:39 58.30945 16.55650 29651 ft 458 kts 52°
2026-05-06 20:40 58.32848 16.60472 29201 ft 454 kts 53°
2026-05-06 20:40 58.34728 16.65269 28716 ft 450 kts 53°
2026-05-06 20:40 58.36589 16.70040 28240 ft 447 kts 53°
2026-05-06 20:40 58.38435 16.74783 27777 ft 444 kts 53°
2026-05-06 20:41 58.40265 16.79496 27315 ft 441 kts 53°
2026-05-06 20:41 58.42081 16.84182 26855 ft 438 kts 53°
2026-05-06 20:41 58.43886 16.88849 26407 ft 435 kts 53°
2026-05-06 20:41 58.45678 16.93491 25967 ft 433 kts 53°
2026-05-06 20:42 58.47456 16.98106 25540 ft 430 kts 53°
2026-05-06 20:42 58.49225 17.02706 25099 ft 429 kts 53°
2026-05-06 20:42 58.50989 17.07302 24639 ft 428 kts 53°
2026-05-06 20:42 58.52745 17.11885 24179 ft 426 kts 53°
2026-05-06 20:43 58.54488 17.16447 23749 ft 424 kts 53°
2026-05-06 20:43 58.56221 17.20988 23280 ft 422 kts 53°
2026-05-06 20:43 58.57947 17.25519 22797 ft 419 kts 53°
2026-05-06 20:43 58.59655 17.30013 22372 ft 416 kts 53°
2026-05-06 20:44 58.61347 17.34475 21944 ft 412 kts 53°
2026-05-06 20:44 58.63026 17.38906 21513 ft 409 kts 53°
2026-05-06 20:44 58.64688 17.43305 21099 ft 406 kts 53°
2026-05-06 20:44 58.66337 17.47675 20683 ft 403 kts 53°
2026-05-06 20:45 58.67972 17.52018 20266 ft 400 kts 53°
2026-05-06 20:45 58.69597 17.56341 19872 ft 397 kts 53°
2026-05-06 20:45 58.71211 17.60642 19450 ft 395 kts 53°
2026-05-06 20:45 58.72812 17.64915 19041 ft 393 kts 53°
2026-05-06 20:46 58.74405 17.69176 18634 ft 391 kts 53°
2026-05-06 20:46 58.75965 17.73356 18229 ft 388 kts 53°
2026-05-06 20:46 58.77556 17.77623 17773 ft 385 kts 53°
2026-05-06 20:46 58.79110 17.81797 17363 ft 381 kts 53°
2026-05-06 20:47 58.80631 17.85870 17001 ft 376 kts 51°
2026-05-06 20:47 58.82526 17.89282 16773 ft 363 kts 28°
2026-05-06 20:47 58.84707 17.91397 16620 ft 351 kts 23°
2026-05-06 20:47 58.86874 17.93446 16419 ft 343 kts 24°
2026-05-06 20:48 58.88990 17.95447 16215 ft 335 kts 24°
2026-05-06 20:48 58.91085 17.97429 16017 ft 327 kts 24°
2026-05-06 20:48 58.93079 17.99315 15835 ft 320 kts 23°
2026-05-06 20:48 58.95055 18.01188 15642 ft 313 kts 23°
2026-05-06 20:49 58.97000 18.03034 15439 ft 311 kts 24°
2026-05-06 20:49 58.98970 18.04906 15250 ft 311 kts 24°
2026-05-06 20:49 59.00882 18.06724 15060 ft 309 kts 24°
2026-05-06 20:49 59.02808 18.08558 14877 ft 308 kts 24°
2026-05-06 20:50 59.04725 18.10386 14691 ft 306 kts 24°
2026-05-06 20:50 59.06635 18.12209 14516 ft 305 kts 24°
2026-05-06 20:50 59.08535 18.14023 14333 ft 303 kts 24°
2026-05-06 20:50 59.10517 18.15249 14111 ft 297 kts
2026-05-06 20:51 59.12567 18.15484 13946 ft 295 kts
2026-05-06 20:51 59.14615 18.15743 13788 ft 295 kts
2026-05-06 20:51 59.16660 18.15993 13589 ft 294 kts
2026-05-06 20:51 59.18694 18.16238 13405 ft 293 kts
2026-05-06 20:52 59.20725 18.16481 13237 ft 292 kts
2026-05-06 20:52 59.22750 18.16721 13059 ft 291 kts
2026-05-06 20:52 59.24768 18.16959 12881 ft 290 kts
2026-05-06 20:52 59.26777 18.17196 12708 ft 289 kts
2026-05-06 20:53 59.28783 18.17433 12533 ft 288 kts
2026-05-06 20:53 59.30781 18.17669 12364 ft 287 kts
2026-05-06 20:53 59.32772 18.17905 12187 ft 286 kts
2026-05-06 20:53 59.34758 18.18140 12015 ft 285 kts
2026-05-06 20:54 59.36734 18.18374 11840 ft 284 kts
2026-05-06 20:54 59.38708 18.18608 11671 ft 283 kts
2026-05-06 20:54 59.40673 18.18841 11505 ft 282 kts
2026-05-06 20:54 59.42631 18.19074 11331 ft 281 kts
2026-05-06 20:55 59.44584 18.19307 11163 ft 281 kts
2026-05-06 20:55 59.46530 18.19538 10994 ft 280 kts
2026-05-06 20:55 59.48470 18.19770 10842 ft 279 kts
2026-05-06 20:55 59.50404 18.20000 10644 ft 278 kts
2026-05-06 20:56 59.52333 18.20231 10472 ft 277 kts
2026-05-06 20:56 59.54243 18.20725 10288 ft 277 kts
2026-05-06 20:56 59.56130 18.21470 10117 ft 276 kts
2026-05-06 20:56 59.58012 18.22187 9962 ft 275 kts
2026-05-06 20:57 59.59890 18.22886 9797 ft 274 kts
2026-05-06 20:57 59.61762 18.23573 9609 ft 273 kts
2026-05-06 20:57 59.63627 18.24250 9450 ft 272 kts
2026-05-06 20:57 59.65488 18.24925 9275 ft 271 kts
2026-05-06 20:58 59.67345 18.25596 9109 ft 271 kts
2026-05-06 20:58 59.69193 18.26264 8952 ft 270 kts
2026-05-06 20:58 59.71039 18.26931 8790 ft 269 kts
2026-05-06 20:58 59.72854 18.27589 8635 ft 268 kts
2026-05-06 20:59 59.74687 18.28253 8470 ft 268 kts
2026-05-06 20:59 59.76518 18.28917 8315 ft 267 kts